Weather History for Cheraw, SC

Change the Weather History Date:

Saturday, September 28, 2013

  Actual Average (KFLO) Record (KFLO)
Temperature  
Mean Temperature 62 °F 70 °F  
Max Temperature 73 °F 81 °F 96 °F (1986)
Min Temperature 50 °F 60 °F 49 °F (1962)
Degree Days  
Heating Degree Days 4 1  
Month to date heating degree days 5  
Since 1 July heating degree days 5  
Cooling Degree Days 0 6  
Month to date cooling degree days 275  
Year to date cooling degree days 1945  
Growing Degree Days 12 (Base 50)    
Moisture  
Dew Point 52 °F    
Average Humidity 74    
Maximum Humidity 100    
Minimum Humidity 41    
Precipitation  
Precipitation 0.00 in 0.12 in 1.25 in (1972)
Month to date precipitation 3.44  
Year to date precipitation 33.92  
Sea Level Pressure  
Sea Level Pressure 30.18 in    
Wind  
Wind Speed 11 mph (NNE)    
Max Wind Speed 33 mph    
Max Gust Speed 40 mph    
Visibility 10 miles    
Events      
T = Trace of Precipitation, MM = Missing Value Source: NWS Daily Summary

Daily Weather History Graph

Daily Weather History Graph

Search for Another Location

Airport:

Trip Planner

Search our weather history database for the weather conditions in past years. The results will help you decide how hot, cold, wet, or windy it might be!

Date:

Astronomy

Sep. 28, 2013 Rise Set
Actual Time 7:12 AM EDT 7:07 PM EDT
Civil Twilight 6:47 AM EDT 7:32 PM EDT
Nautical Twilight 6:18 AM EDT 8:02 PM EDT
Astronomical Twilight 5:48 AM EDT 8:31 PM EDT
Moon 1:10 AM EDT (9/28) 3:14 PM EDT (9/28)
Length of Visible Light 12h 45m
Length of Day
11h 55m
Last Quarter, 36% of the Moon is Illuminated
Sep 28
Last Quarter
Oct 4
New
Oct 11
First Quarter
Oct 18
Full
Oct 26
Last Quarter

Hourly Weather History & Observations

Time (EDT) Temp. Dew Point Humidity Pressure Visibility Wind Dir Wind Speed Gust Speed Precip Events Conditions
12:15 AM 55.4 °F 55.4 °F 100% 30.17 in 9.0 mi Calm Calm - N/A   Clear
12:35 AM 57.2 °F 55.4 °F 94% 30.17 in 9.0 mi Calm Calm - N/A   Clear
12:55 AM 55.4 °F 53.6 °F 94% 30.17 in 10.0 mi Calm Calm - N/A   Clear
1:15 AM 55.4 °F 53.6 °F 94% 30.18 in 10.0 mi Calm Calm - N/A   Clear
1:35 AM 55.4 °F 53.6 °F 94% 30.17 in 10.0 mi NNE 5.8 mph - N/A   Clear
1:55 AM 55.4 °F 53.6 °F 94% 30.17 in 10.0 mi North 6.9 mph - N/A   Clear
2:15 AM 55.4 °F 53.6 °F 94% 30.17 in 10.0 mi NNE 5.8 mph - N/A   Clear
2:35 AM 53.6 °F 53.6 °F 100% 30.17 in 10.0 mi NNE 6.9 mph - N/A   Clear
2:55 AM 53.6 °F 53.6 °F 100% 30.16 in 10.0 mi NNE 6.9 mph - N/A   Clear
3:15 AM 53.6 °F 53.6 °F 100% 30.16 in 10.0 mi NNE 5.8 mph - N/A   Clear
3:35 AM 53.6 °F 53.6 °F 100% 30.16 in 10.0 mi North 8.1 mph - N/A   Clear
3:55 AM 53.6 °F 53.6 °F 100% 30.16 in 10.0 mi North 9.2 mph - N/A   Clear
4:15 AM 53.6 °F 53.6 °F 100% 30.16 in 10.0 mi NNE 5.8 mph - N/A   Clear
4:35 AM 53.6 °F 51.8 °F 94% 30.16 in 10.0 mi NNE 5.8 mph - N/A   Clear
4:55 AM 51.8 °F 51.8 °F 100% 30.17 in 10.0 mi North 8.1 mph - N/A   Clear
5:15 AM 51.8 °F 50.0 °F 94% 30.17 in 10.0 mi North 9.2 mph - N/A   Clear
5:35 AM 51.8 °F 50.0 °F 94% 30.17 in 10.0 mi North 9.2 mph - N/A   Clear
5:55 AM 51.8 °F 50.0 °F 94% 30.18 in 10.0 mi NNE 6.9 mph - N/A   Clear
6:15 AM 50.0 °F 50.0 °F 100% 30.18 in 10.0 mi North 8.1 mph - N/A   Clear
6:35 AM 50.0 °F 50.0 °F 100% 30.19 in 10.0 mi NNE 8.1 mph - N/A   Clear
6:55 AM 50.0 °F 50.0 °F 100% 30.19 in 10.0 mi NNE 8.1 mph - N/A   Clear
7:15 AM 51.8 °F 50.0 °F 94% 30.20 in 10.0 mi NNE 9.2 mph - N/A   Clear
7:35 AM 51.8 °F 51.8 °F 100% 30.21 in 10.0 mi North 11.5 mph - N/A   Clear
7:55 AM 53.6 °F 53.6 °F 100% 30.21 in 10.0 mi NNE 10.4 mph - N/A   Clear
8:15 AM 55.4 °F 53.6 °F 94% 30.22 in 10.0 mi North 13.8 mph - N/A   Clear
8:35 AM 55.4 °F 55.4 °F 100% 30.22 in 10.0 mi North 15.0 mph 21.9 mph N/A   Clear
8:55 AM 57.2 °F 55.4 °F 94% 30.23 in 10.0 mi NNE 18.4 mph 25.3 mph N/A   Clear
9:15 AM 59.0 °F 55.4 °F 88% 30.23 in 10.0 mi NNE 21.9 mph 31.1 mph N/A   Clear
9:35 AM 60.8 °F 55.4 °F 82% 30.23 in 10.0 mi NNE 24.2 mph 27.6 mph N/A   Clear
9:55 AM 62.6 °F 55.4 °F 77% 30.23 in 10.0 mi NNE 17.3 mph 26.5 mph N/A   Clear
10:15 AM 64.4 °F 57.2 °F 77% 30.24 in 10.0 mi NE 19.6 mph 32.2 mph N/A   Clear
10:35 AM 66.2 °F 55.4 °F 68% 30.24 in 10.0 mi NNE 21.9 mph 31.1 mph N/A   Clear
10:55 AM 66.2 °F 55.4 °F 68% 30.24 in 10.0 mi NNE 31.1 mph 39.1 mph N/A   Clear
11:15 AM 68.0 °F 51.8 °F 56% 30.23 in 10.0 mi ENE 24.2 mph 38.0 mph N/A   Clear
11:35 AM 66.2 °F 51.8 °F 60% 30.24 in 10.0 mi NNE 24.2 mph 32.2 mph N/A   Clear
11:55 AM 68.0 °F 50.0 °F 52% 30.23 in 10.0 mi NE 26.5 mph 35.7 mph N/A   Partly Cloudy
12:15 PM 71.6 °F 48.2 °F 43% 30.23 in 10.0 mi NE 20.7 mph 34.5 mph N/A   Clear
12:35 PM 71.6 °F 48.2 °F 43% 30.22 in 10.0 mi NNE 21.9 mph 29.9 mph N/A   Clear
12:55 PM 71.6 °F 48.2 °F 43% 30.22 in 10.0 mi North 27.6 mph 38.0 mph N/A   Clear
1:15 PM 71.6 °F 50.0 °F 46% 30.21 in 10.0 mi NNE 24.2 mph 40.3 mph N/A   Clear
1:35 PM 73.4 °F 48.2 °F 41% 30.20 in 10.0 mi North 23.0 mph 33.4 mph N/A   Clear
1:55 PM 71.6 °F 50.0 °F 46% 30.19 in 10.0 mi North 28.8 mph 36.8 mph N/A   Clear
2:15 PM 73.4 °F 50.0 °F 44% 30.18 in 10.0 mi NNE 33.4 mph 38.0 mph N/A   Clear
2:35 PM 73.4 °F 50.0 °F 44% 30.17 in 10.0 mi North 13.8 mph 35.7 mph N/A   Clear
2:55 PM 73.4 °F 50.0 °F 44% 30.17 in 10.0 mi North 26.5 mph 34.5 mph N/A   Clear
3:15 PM 73.4 °F 50.0 °F 44% 30.16 in 10.0 mi NNE 17.3 mph 36.8 mph N/A   Clear
3:35 PM 73.4 °F 50.0 °F 44% 30.16 in 10.0 mi North 20.7 mph 39.1 mph N/A   Clear
3:55 PM 73.4 °F 50.0 °F 44% 30.15 in 10.0 mi North 19.6 mph 34.5 mph N/A   Clear
4:15 PM 73.4 °F 50.0 °F 44% 30.15 in 10.0 mi NNE 19.6 mph 33.4 mph N/A   Clear
4:35 PM 73.4 °F 50.0 °F 44% 30.15 in 10.0 mi North 19.6 mph 36.8 mph N/A   Clear
4:55 PM 73.4 °F 50.0 °F 44% 30.15 in 10.0 mi North 24.2 mph 31.1 mph N/A   Clear
5:15 PM 71.6 °F 50.0 °F 46% 30.15 in 9.0 mi North 27.6 mph 34.5 mph N/A   Clear
5:35 PM 71.6 °F 50.0 °F 46% 30.15 in 8.0 mi North 19.6 mph 28.8 mph N/A   Clear
5:55 PM 71.6 °F 50.0 °F 46% 30.15 in 8.0 mi North 20.7 mph 25.3 mph N/A   Clear
6:15 PM 69.8 °F 50.0 °F 49% 30.16 in 8.0 mi North 18.4 mph 25.3 mph N/A   Clear
6:35 PM 68.0 °F 50.0 °F 52% 30.16 in 8.0 mi North 16.1 mph 20.7 mph N/A   Clear
6:55 PM 66.2 °F 50.0 °F 56% 30.17 in 8.0 mi North 12.7 mph - N/A   Clear
7:15 PM 64.4 °F 50.0 °F 59% 30.17 in 8.0 mi North 10.4 mph - N/A   Clear
7:35 PM 62.6 °F 50.0 °F 63% 30.17 in 10.0 mi North 15.0 mph 20.7 mph N/A   Clear
7:55 PM 62.6 °F 51.8 °F 68% 30.17 in 10.0 mi North 13.8 mph - N/A   Clear
8:15 PM 60.8 °F 51.8 °F 72% 30.17 in 10.0 mi North 16.1 mph - N/A   Clear
8:35 PM 60.8 °F 50.0 °F 68% 30.17 in 9.0 mi North 15.0 mph 23.0 mph N/A   Clear
8:55 PM 59.0 °F 51.8 °F 77% 30.17 in 6.0 mi North 12.7 mph - N/A   Haze
9:15 PM 59.0 °F 51.8 °F 77% 30.17 in 5.0 mi North 11.5 mph 18.4 mph N/A   Haze
9:35 PM 59.0 °F 51.8 °F 77% 30.17 in 6.0 mi North 13.8 mph - N/A   Haze
9:55 PM 57.2 °F 51.8 °F 82% 30.17 in 6.0 mi North 10.4 mph - N/A   Haze
10:15 PM 57.2 °F 51.8 °F 82% 30.16 in 9.0 mi North 10.4 mph - N/A   Clear
10:35 PM 55.4 °F 51.8 °F 88% 30.16 in 10.0 mi North 10.4 mph - N/A   Clear
10:55 PM 57.2 °F 51.8 °F 82% 30.16 in 10.0 mi North 8.1 mph - N/A   Clear
11:15 PM 55.4 °F 51.8 °F 88% 30.16 in 10.0 mi NNE 6.9 mph - N/A   Clear
11:35 PM 55.4 °F 51.8 °F 88% 30.16 in 10.0 mi North 8.1 mph - N/A   Clear
11:55 PM 55.4 °F 51.8 °F 88% 30.16 in 10.0 mi North 6.9 mph - N/A   Clear